"startDT [UTC]","vpos","CH4 [ppm]","stdev(CH4) [ppm]","CO2 [ppm]","stdev(CO2) [ppm]","H2O [ppm]","stdev(H2O)","p_LGR [torr]","T_LGR [C]","mt1_LGR [us]","mt2_LGR [us]","T_ECpre [C]","T_EC1 [C]","T_EC2 [C]","p_inlet [hPa]","p_in [hPa]","p_out [hPa]","T_inlet [C]","RH_inlet [%]","dwpt_inlet [C]","T_vent [C]","RH_vent [%]","dwpt_vent [C]","flow_vent [l min-1]","flow_inlet [l min-1]","dwpt_sample [C]","T_room [C]"
2012-08-27 00:00:00,0.0,1.9178,0.0010,386.93,0.32,237.0,29.7,138.05,31.66,24.66,36.54,0.94,16.49,-25.88,-51,38,-936,26.4,22.0,2.9,26.2,1.5,-29.7,5.73,2.60,-27.2,30.5
2012-08-27 00:01:00,0.0,1.9183,0.0009,387.08,0.26,238.4,31.4,138.05,31.66,24.66,36.54,0.95,16.56,-25.87,-51,38,-936,26.4,21.6,2.7,26.2,1.5,-29.7,5.73,2.56,-27.3,30.5
2012-08-27 00:02:00,0.0,1.9158,0.0010,387.08,0.31,232.0,26.7,138.05,31.66,24.66,36.54,0.94,16.63,-25.87,-51,38,-935,26.4,21.7,2.8,26.2,1.5,-29.7,5.73,2.59,-27.3,30.5
2012-08-27 00:03:00,0.0,1.9153,0.0010,387.01,0.30,227.7,27.2,138.05,31.66,24.66,36.54,0.93,16.70,-25.86,-51,38,-936,26.4,21.9,2.9,26.2,1.5,-29.7,5.73,2.60,-27.3,30.5
2012-08-27 00:04:00,0.0,1.9130,0.0012,386.97,0.27,235.4,29.3,138.05,31.66,24.66,36.54,0.94,16.76,-25.86,-51,38,-936,26.4,22.1,3.0,26.2,1.5,-29.7,5.73,2.56,-27.2,30.5
2012-08-27 00:05:00,0.0,1.9120,0.0010,387.01,0.31,234.0,30.6,138.05,31.66,24.66,36.54,0.95,16.82,-25.86,-51,38,-936,26.4,22.0,3.0,26.2,1.5,-29.7,5.73,2.59,-27.3,30.5
2012-08-27 00:06:00,0.0,1.9125,0.0010,387.10,0.27,236.6,27.4,138.05,31.66,24.66,36.54,0.95,16.88,-25.85,-51,38,-935,26.4,22.0,3.0,26.2,1.5,-29.7,5.73,2.60,-27.2,30.4
2012-08-27 00:07:00,0.0,1.9122,0.0008,386.97,0.28,231.9,25.9,138.05,31.66,24.66,36.55,0.95,16.93,-25.85,-51,38,-936,26.4,21.9,2.9,26.2,1.5,-29.7,5.73,2.56,-27.2,30.4
2012-08-27 00:08:00,0.0,1.9116,0.0009,387.07,0.31,234.5,25.4,138.05,31.66,24.66,36.55,0.95,16.98,-25.85,-51,38,-936,26.4,21.8,2.9,26.2,1.5,-29.7,5.73,2.59,-27.3,30.5
2012-08-27 00:09:00,0.0,1.9115,0.0009,387.13,0.33,236.2,26.7,138.05,31.67,24.66,36.54,0.94,17.03,-25.85,-51,38,-936,26.4,21.7,2.8,26.3,1.5,-29.7,5.73,2.60,-27.2,30.5
2012-08-27 00:10:00,0.0,1.9114,0.0009,386.96,0.28,232.3,27.7,138.05,31.67,24.66,36.54,0.95,17.08,-25.84,-51,38,-936,26.4,22.0,2.9,26.3,1.5,-29.7,5.73,2.56,-27.2,30.5
2012-08-27 00:11:00,0.0,1.9113,0.0008,387.02,0.29,225.9,32.2,138.05,31.67,24.66,36.54,0.95,17.12,-25.84,-51,38,-936,26.4,21.9,2.9,26.3,1.5,-29.7,5.73,2.59,-27.3,30.5
2012-08-27 00:12:00,0.0,1.9112,0.0007,387.00,0.26,232.0,30.3,138.05,31.67,24.66,36.54,0.95,17.17,-25.84,-51,38,-936,26.4,21.7,2.8,26.3,1.5,-29.7,5.73,2.60,-27.3,30.6
2012-08-27 00:13:00,0.0,1.9108,0.0010,387.07,0.30,234.6,31.7,138.05,31.67,24.66,36.55,0.94,17.21,-25.83,-51,38,-936,26.4,21.7,2.8,26.3,1.5,-29.7,5.73,2.56,-27.3,30.6
2012-08-27 00:14:00,0.0,1.9111,0.0009,386.98,0.28,238.0,32.4,138.05,31.67,24.66,36.54,0.95,17.25,-25.83,-51,38,-936,26.4,21.8,2.8,26.3,1.5,-29.7,5.73,2.58,-27.3,30.5
2012-08-27 00:15:00,0.0,1.9125,0.0010,387.08,0.28,239.6,28.9,138.05,31.67,24.66,36.55,0.94,17.29,-25.83,-51,38,-936,26.4,21.5,2.7,26.3,1.5,-29.7,5.73,2.60,-27.3,30.5
2012-08-27 00:16:00,0.0,1.9123,0.0009,387.12,0.28,230.9,28.5,138.05,31.67,24.66,36.54,0.94,17.32,-25.83,-51,38,-936,26.4,21.6,2.7,26.3,1.5,-29.7,5.73,2.57,-27.3,30.5
2012-08-27 00:17:00,0.0,1.9120,0.0009,386.90,0.26,241.4,29.3,138.05,31.67,24.66,36.54,0.95,17.36,-25.82,-51,38,-936,26.4,21.8,2.8,26.3,1.5,-29.7,5.73,2.58,-27.3,30.5
2012-08-27 00:18:00,0.0,1.9111,0.0010,387.04,0.29,232.4,31.3,138.05,31.67,24.66,36.54,0.94,17.39,-25.83,-51,38,-936,26.4,21.6,2.7,26.3,1.5,-29.7,5.73,2.60,-27.3,30.5
2012-08-27 00:19:00,0.0,1.9104,0.0010,387.08,0.31,240.3,30.0,138.05,31.67,24.66,36.54,0.94,17.43,-25.82,-51,38,-936,26.4,21.7,2.8,26.3,1.5,-29.7,5.73,2.57,-27.3,30.5
2012-08-27 00:20:00,0.0,1.9103,0.0009,387.05,0.31,231.7,26.1,138.05,31.68,24.66,36.55,0.95,17.46,-25.82,-51,38,-936,26.4,21.8,2.9,26.3,1.5,-29.7,5.73,2.57,-27.3,30.5
2012-08-27 00:21:00,0.0,1.9102,0.0009,386.99,0.32,238.6,29.0,138.05,31.68,24.66,36.54,0.94,17.49,-25.82,-51,38,-936,26.5,22.1,3.1,26.3,1.5,-29.7,5.73,2.61,-27.3,30.5
2012-08-27 00:22:00,0.0,1.9103,0.0008,387.14,0.30,232.7,23.9,138.05,31.68,24.66,36.54,0.94,17.52,-25.81,-51,38,-936,26.4,21.9,2.9,26.3,1.5,-29.7,5.73,2.57,-27.3,30.5
2012-08-27 00:23:00,0.0,1.9100,0.0009,387.14,0.31,234.0,32.4,138.05,31.68,24.66,36.54,0.94,17.55,-25.82,-51,38,-936,26.5,21.7,2.8,26.3,1.5,-29.6,5.73,2.57,-27.3,30.6
2012-08-27 00:24:00,0.0,1.9089,0.0009,387.06,0.28,230.4,30.7,138.05,31.68,24.66,36.54,0.95,17.57,-25.81,-51,38,-936,26.5,21.9,3.0,26.3,1.5,-29.6,5.73,2.61,-27.3,30.5
2012-08-27 00:25:00,0.0,1.9083,0.0007,387.02,0.32,230.8,30.6,138.05,31.68,24.66,36.54,0.94,17.60,-25.81,-51,39,-936,26.4,22.1,3.1,26.3,1.5,-29.7,5.73,2.58,-27.3,30.5
2012-08-27 00:26:00,0.0,1.9084,0.0009,386.86,0.28,238.2,29.9,138.05,31.68,24.66,36.54,0.94,17.62,-25.80,-51,38,-936,26.5,22.3,3.2,26.3,1.5,-29.6,5.73,2.56,-27.3,30.6
2012-08-27 00:27:00,0.0,1.9079,0.0009,386.75,0.34,235.7,25.8,138.05,31.69,24.66,36.54,0.94,17.65,-25.80,-51,38,-936,26.4,22.6,3.4,26.3,1.5,-29.7,5.73,2.60,-27.3,30.5
2012-08-27 00:28:00,0.0,1.9087,0.0008,387.07,0.33,237.6,29.8,138.05,31.69,24.66,36.53,0.95,17.67,-25.80,-51,38,-936,26.5,22.4,3.2,26.3,1.5,-29.6,5.73,2.59,-27.3,30.5
2012-08-27 00:29:00,0.0,1.9081,0.0008,387.14,0.26,233.2,25.3,138.05,31.69,24.66,36.54,0.95,17.69,-25.79,-51,38,-936,26.5,22.0,3.0,26.3,1.5,-29.7,5.73,2.56,-27.3,30.5
2012-08-27 00:30:00,0.0,1.9080,0.0010,387.04,0.25,227.9,27.1,138.05,31.69,24.66,36.54,0.94,17.71,-25.79,-51,38,-936,26.5,22.2,3.1,26.3,1.5,-29.7,5.73,2.60,-27.3,30.4
2012-08-27 00:31:00,0.0,1.9079,0.0007,387.14,0.27,235.5,29.7,138.05,31.69,24.66,36.54,0.95,17.73,-25.79,-51,38,-937,26.5,22.0,3.0,26.3,1.5,-29.6,5.73,2.59,-27.3,30.4
2012-08-27 00:32:00,0.0,1.9078,0.0008,387.03,0.32,231.4,31.7,138.05,31.69,24.66,36.54,0.94,17.75,-25.79,-51,38,-936,26.5,22.1,3.1,26.3,1.5,-29.7,5.73,2.56,-27.3,30.5
2012-08-27 00:33:00,0.0,1.9078,0.0009,386.89,0.29,221.4,24.2,138.05,31.69,24.66,36.54,0.95,17.77,-25.79,-51,38,-936,26.5,22.4,3.3,26.3,1.5,-29.7,5.73,2.60,-27.3,30.5
2012-08-27 00:34:00,0.0,1.9075,0.0008,387.09,0.25,231.1,29.3,138.05,31.69,24.66,36.54,0.95,17.79,-25.79,-51,38,-936,26.5,22.1,3.1,26.3,1.5,-29.6,5.73,2.59,-27.3,30.6
2012-08-27 00:35:00,0.0,1.9072,0.0010,387.06,0.33,234.1,31.1,138.04,31.69,24.66,36.54,0.94,17.80,-25.79,-51,38,-937,26.5,22.1,3.0,26.3,1.5,-29.7,5.73,2.56,-27.3,30.6
2012-08-27 00:36:00,0.0,1.9066,0.0009,386.89,0.27,237.3,29.7,138.05,31.69,24.66,36.54,0.96,17.82,-25.79,-51,38,-936,26.5,22.2,3.1,26.3,1.5,-29.7,5.73,2.60,-27.3,30.5
2012-08-27 00:37:00,0.0,1.9066,0.0009,386.84,0.36,229.4,30.7,138.04,31.69,24.66,36.54,0.93,17.84,-25.79,-51,38,-936,26.5,22.2,3.1,26.3,1.5,-29.7,5.73,2.60,-27.3,30.5
2012-08-27 00:38:00,0.0,1.9065,0.0008,386.84,0.31,230.8,28.0,138.05,31.69,24.66,36.54,0.93,17.84,-25.79,-51,38,-936,26.5,22.0,3.1,26.3,1.5,-29.7,5.73,2.56,-27.3,30.5
2012-08-27 00:39:00,0.0,1.9064,0.0008,386.87,0.30,234.2,28.2,138.04,31.69,24.66,36.54,0.95,17.86,-25.79,-51,38,-936,26.5,22.0,3.0,26.3,1.5,-29.7,5.73,2.59,-27.3,30.5
2012-08-27 00:40:00,0.0,1.9063,0.0011,386.91,0.30,233.5,27.6,138.04,31.69,24.66,36.54,1.10,17.60,-25.79,-51,38,-936,26.5,22.0,3.0,26.3,1.5,-29.7,5.73,2.60,-27.3,30.5
2012-08-27 00:41:00,0.0,1.9064,0.0008,387.05,0.27,230.8,27.6,138.05,31.69,24.66,36.55,1.17,15.92,-25.80,-51,38,-937,26.5,21.6,2.8,26.3,1.5,-29.6,5.73,2.56,-27.3,30.5
2012-08-27 00:42:00,0.0,1.9064,0.0008,387.03,0.34,231.6,28.6,138.05,31.69,24.66,36.54,1.09,13.65,-25.81,-51,38,-936,26.5,21.8,2.9,26.3,1.5,-29.6,5.73,2.59,-27.3,30.5
2012-08-27 00:43:00,0.0,1.9061,0.0008,387.03,0.38,239.3,27.8,138.05,31.69,24.66,36.54,1.02,11.28,-25.82,-51,38,-936,26.5,21.8,2.9,26.3,1.5,-29.7,5.73,2.60,-27.3,30.5
2012-08-27 00:44:00,0.0,1.9063,0.0009,387.04,0.34,227.6,25.9,138.05,31.69,24.66,36.54,1.00,8.97,-25.84,-51,38,-936,26.4,21.8,2.9,26.3,1.5,-29.7,5.73,2.56,-27.3,30.5
2012-08-27 00:45:00,0.0,1.9065,0.0011,386.85,0.31,231.1,31.3,138.05,31.69,24.66,36.54,1.00,6.76,-25.85,-51,38,-936,26.4,22.2,3.1,26.3,1.5,-29.7,5.73,2.60,-27.4,30.5
2012-08-27 00:46:00,0.0,1.9062,0.0008,386.99,0.33,232.7,24.6,138.05,31.69,24.66,36.54,1.10,4.66,-25.84,-51,39,-936,26.4,22.0,3.0,26.3,1.5,-29.7,5.73,2.58,-27.4,30.5
2012-08-27 00:47:00,0.0,1.9060,0.0009,387.01,0.29,232.2,30.1,138.05,31.69,24.66,36.54,1.01,2.67,-25.84,-51,39,-937,26.4,21.9,2.9,26.3,1.5,-29.7,5.73,2.58,-27.4,30.4
2012-08-27 00:48:00,0.0,1.9065,0.0011,386.94,0.25,235.7,33.3,138.05,31.69,24.66,36.54,1.01,0.77,-25.83,-51,39,-936,26.4,21.8,2.9,26.3,1.5,-29.7,5.73,2.61,-27.4,30.4
2012-08-27 00:49:00,0.0,1.9064,0.0009,386.79,0.31,237.5,30.3,138.05,31.69,24.66,36.55,1.10,-1.01,-25.82,-51,38,-936,26.4,22.0,3.0,26.3,1.5,-29.6,5.73,2.56,-27.4,30.4
2012-08-27 00:50:00,0.0,1.9061,0.0007,386.90,0.27,233.0,26.0,138.05,31.68,24.66,36.55,1.00,-2.48,-25.80,-51,38,-936,26.4,22.2,3.1,26.3,1.5,-29.7,5.73,2.60,-27.4,30.3
2012-08-27 00:51:00,0.0,1.9061,0.0008,386.85,0.35,239.9,25.1,138.05,31.68,24.66,36.54,0.99,-3.84,-25.79,-51,39,-936,26.4,22.2,3.1,26.3,1.5,-29.7,5.73,2.58,-27.3,30.3
2012-08-27 00:52:00,0.0,1.9060,0.0008,386.96,0.31,231.5,32.0,138.05,31.68,24.66,36.54,1.10,-4.50,-25.78,-51,39,-936,26.4,22.1,3.0,26.2,1.5,-29.7,5.73,2.57,-27.3,30.4
2012-08-27 00:53:00,0.0,1.9073,0.0011,386.89,0.32,234.6,22.6,138.05,31.68,24.66,36.54,1.02,-6.29,-25.76,-51,39,-937,26.4,22.0,3.0,26.3,1.5,-29.7,5.73,2.61,-27.3,30.4
2012-08-27 00:54:00,0.0,1.9065,0.0009,386.96,0.30,241.6,29.7,138.05,31.68,24.66,36.54,0.98,-7.63,-25.75,-51,38,-937,26.4,22.0,3.0,26.2,1.5,-29.7,5.73,2.56,-27.3,30.3
2012-08-27 00:55:00,0.0,1.9059,0.0010,386.86,0.30,240.8,34.9,138.05,31.68,24.66,36.55,1.05,-8.97,-25.74,-51,39,-936,26.4,22.1,3.0,26.2,1.5,-29.7,5.73,2.60,-27.3,30.4
2012-08-27 00:56:00,0.0,1.9060,0.0009,387.02,0.24,239.1,28.1,138.05,31.68,24.66,36.54,1.07,-10.14,-25.73,-51,38,-936,26.4,21.8,2.8,26.2,1.5,-29.7,5.73,2.59,-27.3,30.5
2012-08-27 00:57:00,0.0,1.9056,0.0008,386.92,0.26,234.6,27.4,138.05,31.68,24.66,36.54,0.98,-11.07,-25.72,-51,39,-936,26.4,22.0,2.9,26.2,1.5,-29.7,5.73,2.57,-27.3,30.5
2012-08-27 00:58:00,0.0,1.9058,0.0010,386.98,0.29,241.8,33.3,138.05,31.68,24.66,36.54,1.00,-12.14,-25.72,-51,39,-936,26.4,21.7,2.8,26.2,1.5,-29.7,5.73,2.61,-27.3,30.4
2012-08-27 00:59:00,0.0,1.9053,0.0010,386.92,0.27,247.7,27.0,138.05,31.67,24.66,36.54,1.08,-13.22,-25.71,-51,39,-936,26.4,21.9,2.9,26.2,1.5,-29.6,5.73,2.56,-27.3,30.4
2012-08-27 01:00:00,0.0,1.9056,0.0008,386.84,0.31,243.7,29.2,138.05,31.67,24.66,36.54,1.03,-14.15,-25.70,-51,39,-937,26.4,22.1,3.1,26.2,1.6,-29.5,5.73,2.61,-27.3,30.4
2012-08-27 01:01:00,0.0,1.9063,0.0009,386.87,0.31,242.4,31.0,138.05,31.67,24.66,36.54,0.96,-15.01,-25.71,-51,39,-936,26.4,21.8,2.8,26.2,1.6,-29.5,5.73,2.58,-27.3,30.3
2012-08-27 01:02:00,0.0,1.9062,0.0009,386.93,0.27,246.0,30.6,138.05,31.67,24.66,36.54,1.02,-15.81,-25.71,-51,39,-936,26.4,22.1,3.0,26.2,1.6,-29.5,5.73,2.57,-27.3,30.3
2012-08-27 01:03:00,0.0,1.9061,0.0010,386.70,0.29,242.7,23.1,138.05,31.67,24.66,36.54,1.09,-16.57,-25.70,-51,39,-936,26.4,22.5,3.2,26.2,1.6,-29.5,5.73,2.61,-27.3,30.4
2012-08-27 01:04:00,0.0,1.9058,0.0010,386.85,0.30,245.4,26.7,138.05,31.67,24.66,36.54,1.00,-17.30,-25.70,-51,39,-936,26.4,22.0,2.9,26.2,1.6,-29.5,5.73,2.56,-27.3,30.4
2012-08-27 01:05:00,0.0,1.9067,0.0010,386.95,0.31,242.1,27.2,138.05,31.67,24.66,36.55,0.97,-18.00,-25.71,-51,39,-937,26.4,21.8,2.8,26.2,1.6,-29.5,5.73,2.61,-27.3,30.3
2012-08-27 01:06:00,0.0,1.9066,0.0009,386.94,0.25,241.5,24.5,138.05,31.66,24.66,36.54,1.05,-18.67,-25.71,-51,39,-936,26.4,21.7,2.7,26.2,1.6,-29.4,5.73,2.56,-27.3,30.3
2012-08-27 01:07:00,0.0,1.9066,0.0009,386.77,0.30,245.5,30.3,138.05,31.66,24.66,36.54,1.06,-19.29,-25.71,-51,39,-936,26.3,22.0,2.9,26.2,1.6,-29.3,5.73,2.60,-27.3,30.3
2012-08-27 01:08:00,0.0,1.9063,0.0009,386.69,0.35,238.3,31.0,138.05,31.66,24.66,36.54,0.97,-19.88,-25.72,-51,39,-936,26.4,22.2,3.0,26.2,1.6,-29.3,5.73,2.59,-27.3,30.3
2012-08-27 01:09:00,0.0,1.9060,0.0010,386.84,0.32,244.6,31.8,138.05,31.66,24.66,36.54,0.98,-20.44,-25.74,-51,39,-936,26.4,21.9,2.9,26.2,1.6,-29.3,5.73,2.57,-27.3,30.3
2012-08-27 01:10:00,0.0,1.9066,0.0009,386.97,0.33,246.0,30.3,138.05,31.66,24.66,36.54,1.04,-20.96,-25.74,-51,39,-936,26.4,22.0,3.0,26.2,1.6,-29.2,5.73,2.62,-27.3,30.4
2012-08-27 01:11:00,0.0,1.9068,0.0009,386.75,0.38,240.7,27.6,138.05,31.66,24.66,36.54,1.06,-21.45,-25.74,-51,39,-936,26.3,21.9,2.9,26.2,1.6,-29.3,5.73,2.56,-27.3,30.4
2012-08-27 01:12:00,0.0,1.9064,0.0010,386.65,0.28,241.4,27.7,138.05,31.66,24.66,36.54,0.98,-21.91,-25.75,-51,39,-936,26.4,22.3,3.1,26.2,1.6,-29.4,5.73,2.61,-27.3,30.4
2012-08-27 01:13:00,0.0,1.9065,0.0010,386.72,0.31,245.2,29.2,138.05,31.65,24.66,36.55,0.98,-22.36,-25.76,-51,39,-936,26.3,22.3,3.1,26.2,1.6,-29.5,5.73,2.57,-27.3,30.4
2012-08-27 01:14:00,0.0,1.9065,0.0010,386.87,0.33,241.7,27.9,138.05,31.65,24.66,36.54,1.03,-22.78,-25.76,-51,39,-936,26.3,22.1,2.9,26.2,1.6,-29.3,5.73,2.59,-27.3,30.4
2012-08-27 01:15:00,0.0,1.9065,0.0009,387.07,0.31,253.2,33.3,138.05,31.65,24.66,36.54,1.06,-23.17,-25.77,-51,39,-936,26.4,21.5,2.6,26.2,1.6,-29.4,5.73,2.59,-27.3,30.3
2012-08-27 01:16:00,0.0,1.9069,0.0010,386.93,0.32,235.8,33.5,138.05,31.65,24.66,36.54,0.99,-23.55,-25.78,-51,39,-936,26.3,21.5,2.6,26.2,1.5,-29.6,5.73,2.57,-27.3,30.4
2012-08-27 01:17:00,0.0,1.9075,0.0008,386.92,0.29,246.9,26.1,138.05,31.65,24.66,36.54,0.96,-23.90,-25.79,-51,39,-937,26.4,21.4,2.5,26.2,1.6,-29.3,5.73,2.61,-27.3,30.3
2012-08-27 01:18:00,0.0,1.9070,0.0008,386.69,0.27,240.5,25.0,138.05,31.65,24.66,36.54,1.02,-24.23,-25.80,-51,39,-936,26.4,22.0,2.9,26.2,1.6,-29.5,5.73,2.56,-27.3,30.4
2012-08-27 01:19:00,0.0,1.9069,0.0008,386.53,0.31,242.4,32.2,138.05,31.65,24.66,36.54,1.07,-24.55,-25.81,-51,39,-936,26.4,22.5,3.3,26.2,1.6,-29.5,5.73,2.61,-27.3,30.4
2012-08-27 01:20:00,0.0,1.9069,0.0008,386.91,0.32,241.7,31.2,138.05,31.65,24.66,36.54,1.01,-24.85,-25.81,-51,39,-936,26.4,22.1,3.0,26.2,1.6,-29.6,5.73,2.58,-27.3,30.4
2012-08-27 01:21:00,0.0,1.9076,0.0008,386.78,0.29,239.0,28.3,138.05,31.65,24.66,36.54,0.96,-25.13,-25.82,-51,39,-936,26.4,22.2,3.1,26.2,1.5,-29.6,5.73,2.58,-27.3,30.5
2012-08-27 01:22:00,0.0,1.9070,0.0009,386.74,0.27,243.6,30.0,138.05,31.65,24.66,36.54,1.00,-25.40,-25.82,-51,39,-936,26.4,22.4,3.2,26.2,1.5,-29.6,5.73,2.61,-27.3,30.4
2012-08-27 01:23:00,0.0,1.9067,0.0009,387.03,0.23,232.7,27.8,138.05,31.65,24.66,36.54,1.05,-25.65,-25.83,-51,39,-936,26.4,21.8,2.8,26.2,1.5,-29.6,5.73,2.56,-27.3,30.4
2012-08-27 01:24:00,0.0,1.9068,0.0009,386.89,0.32,240.8,31.4,138.05,31.65,24.66,36.54,0.93,-25.70,-25.83,-51,39,-936,26.4,22.1,3.0,26.2,1.5,-29.6,5.73,2.61,-27.3,30.4
2012-08-27 01:25:00,0.0,1.9070,0.0008,386.97,0.28,234.4,26.1,138.05,31.64,24.66,36.54,1.06,-25.50,-25.84,-51,39,-936,26.4,22.0,2.9,26.2,1.5,-29.6,5.73,2.56,-27.3,30.4
2012-08-27 01:26:00,0.0,1.9070,0.0011,386.91,0.26,238.1,28.1,138.05,31.64,24.66,36.54,0.98,-25.66,-25.84,-51,39,-936,26.4,21.9,2.9,26.2,1.5,-29.7,5.73,2.61,-27.4,30.4
2012-08-27 01:27:00,0.0,1.9076,0.0010,386.88,0.29,243.9,29.2,138.05,31.64,24.66,36.54,0.90,-25.76,-25.85,-51,39,-936,26.4,21.9,2.9,26.2,1.5,-29.7,5.73,2.57,-27.4,30.4
2012-08-27 01:28:00,0.0,1.9074,0.0008,386.96,0.27,240.5,30.5,138.05,31.64,24.66,36.54,1.01,-25.51,-25.85,-51,39,-937,26.4,21.9,2.9,26.2,1.5,-29.7,5.73,2.59,-27.4,30.4
2012-08-27 01:29:00,0.0,1.9072,0.0008,386.88,0.31,239.3,34.9,138.05,31.64,24.66,36.54,1.06,-25.63,-25.86,-51,39,-936,26.4,22.0,3.0,26.2,1.5,-29.7,5.73,2.60,-27.4,30.4
2012-08-27 01:30:00,0.0,1.9075,0.0007,386.91,0.33,251.1,23.4,138.05,31.64,24.66,36.54,1.01,-25.81,-25.87,-51,39,-936,26.4,22.1,3.0,26.2,1.5,-29.7,5.73,2.57,-27.4,30.5
2012-08-27 01:31:00,0.0,1.9072,0.0010,386.85,0.26,235.4,27.6,138.05,31.64,24.66,36.54,0.97,-25.55,-25.87,-51,39,-937,26.4,22.0,3.0,26.2,1.5,-29.7,5.73,2.61,-27.4,30.4
2012-08-27 01:32:00,0.0,1.9070,0.0008,386.88,0.32,239.9,26.1,138.05,31.64,24.66,36.54,0.97,-25.61,-25.88,-51,39,-936,26.4,21.8,2.8,26.2,1.5,-29.7,5.73,2.56,-27.4,30.4
2012-08-27 01:33:00,0.0,1.9080,0.0011,386.94,0.28,239.8,32.6,138.05,31.64,24.66,36.55,1.01,-25.80,-25.89,-51,39,-936,26.4,22.0,3.0,26.2,1.5,-29.7,5.73,2.61,-27.4,30.5
2012-08-27 01:34:00,0.0,1.9079,0.0008,386.75,0.32,238.2,27.9,138.05,31.64,24.66,36.54,0.99,-25.65,-25.89,-51,39,-936,26.4,22.5,3.3,26.2,1.5,-29.7,5.73,2.58,-27.4,30.4
2012-08-27 01:35:00,0.0,1.9085,0.0007,386.72,0.26,235.8,28.6,138.05,31.64,24.66,36.55,1.04,-25.59,-25.90,-51,39,-937,26.4,22.4,3.2,26.2,1.5,-29.7,5.73,2.59,-27.4,30.4
2012-08-27 01:36:00,0.0,1.9082,0.0009,386.73,0.31,233.5,30.8,138.05,31.64,24.66,36.54,0.96,-25.77,-25.90,-51,39,-936,26.4,22.5,3.3,26.2,1.5,-29.7,5.73,2.60,-27.4,30.5
2012-08-27 01:37:00,0.0,1.9084,0.0008,386.84,0.26,233.5,29.6,138.05,31.63,24.66,36.54,0.94,-25.75,-25.90,-51,39,-936,26.4,22.2,3.1,26.2,1.5,-29.7,5.73,2.57,-27.4,30.4
2012-08-27 01:38:00,0.0,1.9084,0.0009,386.62,0.27,235.1,37.6,138.05,31.63,24.66,36.55,1.04,-25.58,-25.91,-51,39,-936,26.4,22.6,3.3,26.2,1.5,-29.8,5.73,2.61,-27.4,30.4
2012-08-27 01:39:00,0.0,1.9076,0.0008,386.64,0.32,227.2,26.1,138.05,31.63,24.66,36.54,0.96,-25.74,-25.74,-51,39,-937,26.4,22.9,3.5,26.2,1.5,-29.8,5.73,2.57,-27.4,30.4
2012-08-27 01:40:00,0.0,1.9080,0.0009,386.82,0.32,231.8,32.2,138.05,31.63,24.66,36.54,0.87,-25.94,-24.35,-51,39,-936,26.4,22.5,3.3,26.2,1.5,-29.8,5.73,2.61,-27.5,30.4
2012-08-27 01:41:00,0.0,1.9075,0.0007,386.80,0.26,263.9,30.3,138.05,31.63,24.66,36.54,0.90,-26.08,-22.42,-51,39,-936,26.4,21.9,2.9,26.2,1.5,-29.8,5.73,2.59,-27.0,30.4
2012-08-27 01:42:00,0.0,1.9079,0.0008,386.67,0.31,289.7,30.5,138.05,31.63,24.66,36.54,0.93,-26.16,-20.45,-51,39,-937,26.4,22.2,3.1,26.2,1.6,-29.2,5.73,2.59,-26.6,30.4
2012-08-27 01:43:00,0.0,1.9079,0.0007,386.75,0.28,315.1,35.0,138.05,31.63,24.66,36.53,0.95,-26.20,-18.55,-51,39,-936,26.4,22.5,3.3,26.2,1.7,-28.4,5.73,2.61,-26.2,30.5
2012-08-27 01:44:00,0.0,1.9076,0.0009,386.68,0.32,339.8,27.5,138.05,31.62,24.66,36.54,0.89,-26.21,-16.74,-51,39,-936,26.4,22.5,3.3,26.2,1.8,-27.9,5.73,2.57,-26.0,30.5
2012-08-27 01:45:00,0.0,1.9071,0.0010,386.78,0.30,346.3,30.0,138.05,31.62,24.66,36.54,0.83,-26.21,-15.03,-51,39,-936,26.4,22.0,3.0,26.2,1.9,-27.6,5.73,2.62,-25.8,30.5
2012-08-27 01:46:00,0.0,1.9077,0.0009,386.61,0.24,350.7,23.0,138.05,31.63,24.66,36.55,0.83,-26.20,-13.41,-51,39,-936,26.4,22.1,3.1,26.2,1.9,-27.5,5.73,2.58,-25.8,30.5
2012-08-27 01:47:00,0.0,1.9076,0.0009,386.74,0.30,351.0,29.0,138.05,31.63,24.66,36.54,0.88,-26.19,-11.87,-51,39,-936,26.4,22.2,3.1,26.3,1.9,-27.5,5.73,2.59,-25.8,30.5
2012-08-27 01:48:00,0.0,1.9081,0.0009,386.90,0.32,349.2,29.4,138.05,31.63,24.66,36.54,0.91,-26.17,-10.42,-51,38,-937,26.4,21.9,3.0,26.3,1.9,-27.6,5.73,2.61,-25.8,30.6
2012-08-27 01:49:00,0.0,1.9078,0.0010,386.89,0.31,342.3,27.8,138.05,31.63,24.66,36.54,0.93,-26.15,-9.04,-51,39,-936,26.5,21.9,2.9,26.3,1.8,-27.7,5.73,2.57,-25.9,30.6
2012-08-27 01:50:00,0.0,1.9078,0.0010,386.87,0.25,338.8,30.2,138.05,31.63,24.66,36.54,0.94,-26.13,-7.75,-51,39,-936,26.5,22.0,3.0,26.3,1.8,-27.7,5.73,2.61,-25.9,30.6
2012-08-27 01:51:00,0.0,1.9073,0.0008,386.75,0.33,346.2,27.6,138.05,31.63,24.66,36.54,0.92,-26.11,-6.51,-51,39,-936,26.5,22.3,3.2,26.3,1.8,-27.9,5.73,2.59,-25.9,30.6
2012-08-27 01:52:00,0.0,1.9076,0.0008,386.78,0.31,330.9,33.8,138.05,31.63,24.66,36.54,0.87,-26.09,-5.34,-51,39,-936,26.5,22.1,3.1,26.3,1.8,-27.9,5.73,2.58,-26.0,30.6
2012-08-27 01:53:00,0.0,1.9076,0.0010,386.69,0.28,325.7,28.9,138.05,31.64,24.66,36.54,0.86,-26.07,-4.23,-51,39,-936,26.5,22.4,3.3,26.3,1.8,-28.1,5.73,2.61,-26.1,30.5
2012-08-27 01:54:00,0.0,1.9074,0.0008,386.81,0.24,320.9,31.1,138.05,31.64,24.66,36.54,0.87,-26.05,-3.17,-51,39,-936,26.5,22.4,3.3,26.3,1.7,-28.2,5.73,2.57,-26.1,30.5
2012-08-27 01:55:00,0.0,1.9072,0.0009,386.81,0.26,324.7,35.0,138.05,31.64,24.66,36.54,0.90,-26.03,-2.18,-51,39,-936,26.5,22.1,3.1,26.3,1.7,-28.2,5.73,2.60,-26.2,30.5
2012-08-27 01:56:00,0.0,1.9076,0.0009,386.88,0.33,311.9,28.0,138.05,31.64,24.66,36.54,0.91,-26.01,-1.22,-51,39,-937,26.5,22.2,3.2,26.3,1.7,-28.3,5.73,2.61,-26.2,30.6
2012-08-27 01:57:00,0.0,1.9071,0.0009,387.00,0.30,316.3,25.5,138.05,31.64,24.66,36.54,0.93,-25.99,-0.32,-51,39,-936,26.5,22.1,3.1,26.3,1.7,-28.4,5.73,2.57,-26.2,30.6
2012-08-27 01:58:00,0.0,1.9076,0.0009,386.88,0.29,316.9,32.4,138.05,31.64,24.66,36.54,0.94,-25.97,0.54,-51,39,-936,26.5,22.3,3.2,26.3,1.7,-28.4,5.73,2.61,-26.3,30.6
2012-08-27 01:59:00,0.0,1.9072,0.0007,386.81,0.29,303.2,30.6,138.05,31.65,24.66,36.55,0.95,-25.95,1.34,-51,39,-937,26.5,22.2,3.2,26.3,1.7,-28.4,5.73,2.59,-26.3,30.6
2012-08-27 02:00:00,1.0,1.8911,0.0090,379.63,4.11,347.4,40.3,138.05,31.65,24.66,36.54,0.98,-25.94,2.12,-48,-5,-936,26.5,22.4,3.3,26.3,1.6,-28.9,5.73,2.43,-25.9,30.6
2012-08-27 02:01:00,1.0,1.8828,0.0009,375.70,0.29,375.6,30.2,138.05,31.65,24.66,36.54,0.93,-25.92,2.74,-47,-5,-936,26.5,22.5,3.4,26.3,1.6,-29.3,5.73,2.44,-25.9,30.7
2012-08-27 02:02:00,1.0,1.8831,0.0009,375.68,0.30,351.8,33.4,138.05,31.65,24.66,36.55,0.90,-25.91,3.14,-48,-5,-937,26.5,22.7,3.5,26.4,1.6,-29.3,5.73,2.44,-26.3,30.6
2012-08-27 02:03:00,1.0,1.8829,0.0009,375.75,0.26,304.7,27.2,138.05,31.66,24.66,36.55,0.91,-25.91,3.32,-48,-5,-937,26.5,22.5,3.4,26.4,1.6,-29.4,5.73,2.44,-26.7,30.6
2012-08-27 02:04:00,1.0,1.8831,0.0010,375.67,0.29,279.6,28.5,138.05,31.66,24.66,36.54,0.90,-25.90,3.58,-48,-5,-936,26.5,22.4,3.3,26.4,1.5,-29.4,5.73,2.45,-27.2,30.7
2012-08-27 02:05:00,0.0,1.8992,0.0085,383.60,3.97,164.4,58.9,138.05,31.66,24.66,36.55,0.86,-25.89,4.04,-51,39,-937,26.6,22.3,3.3,26.4,1.6,-29.3,5.73,2.56,-28.9,30.8
2012-08-27 02:06:00,0.0,1.9065,0.0008,386.95,0.29,186.1,28.6,138.05,31.66,24.66,36.55,0.94,-25.89,4.60,-51,39,-937,26.6,22.5,3.4,26.4,1.6,-29.2,5.73,2.62,-27.9,30.8
2012-08-27 02:07:00,0.0,1.9064,0.0008,386.82,0.30,213.3,29.0,138.05,31.66,24.66,36.54,0.91,-25.88,5.19,-51,38,-936,26.6,22.8,3.6,26.4,1.6,-29.0,5.73,2.59,-27.5,30.8
2012-08-27 02:08:00,0.0,1.9068,0.0009,386.95,0.25,231.8,31.6,138.05,31.66,24.66,36.54,0.93,-25.87,5.75,-51,39,-937,26.6,22.4,3.4,26.4,1.6,-29.0,5.73,2.58,-27.3,30.7
2012-08-27 02:09:00,0.0,1.9068,0.0008,386.88,0.27,249.4,31.3,138.05,31.66,24.66,36.55,0.92,-25.87,6.28,-51,38,-937,26.6,22.4,3.4,26.5,1.6,-29.0,5.73,2.62,-27.1,30.7
2012-08-27 02:10:00,0.0,1.9065,0.0009,386.85,0.32,257.7,29.7,138.05,31.67,24.66,36.54,0.94,-25.85,6.79,-51,38,-936,26.6,22.4,3.4,26.4,1.6,-29.0,5.73,2.57,-27.0,30.7
2012-08-27 02:11:00,0.0,1.9068,0.0008,386.93,0.26,253.0,29.0,138.05,31.67,24.66,36.54,0.95,-25.84,7.28,-51,38,-936,26.6,22.3,3.4,26.5,1.6,-29.0,5.73,2.60,-27.0,30.7
2012-08-27 02:12:00,0.0,1.9062,0.0008,386.97,0.30,266.2,28.4,138.05,31.67,24.66,36.54,0.94,-25.83,7.75,-51,38,-937,26.6,22.3,3.4,26.5,1.6,-29.0,5.73,2.61,-27.0,30.7
2012-08-27 02:13:00,0.0,1.9063,0.0009,386.93,0.29,263.0,25.1,138.05,31.67,24.66,36.54,0.95,-25.82,8.19,-51,38,-937,26.7,22.6,3.5,26.5,1.6,-29.0,5.73,2.57,-26.9,30.7
2012-08-27 02:14:00,0.0,1.9062,0.0009,386.77,0.33,268.1,26.3,138.05,31.68,24.66,36.54,0.95,-25.81,8.62,-51,38,-936,26.7,22.7,3.6,26.5,1.6,-29.0,5.73,2.61,-26.8,30.8
2012-08-27 02:15:00,0.0,1.9061,0.0009,386.73,0.31,263.2,31.8,138.05,31.68,24.66,36.54,0.92,-25.79,9.03,-52,38,-937,26.7,23.0,3.8,26.5,1.6,-29.0,5.73,2.60,-26.8,30.7
2012-08-27 02:16:00,0.0,1.9059,0.0009,386.84,0.31,264.6,27.7,138.05,31.68,24.66,36.54,0.91,-25.79,9.42,-51,38,-937,26.7,23.1,3.9,26.5,1.6,-29.0,5.73,2.57,-26.8,30.7
2012-08-27 02:17:00,0.0,1.9066,0.0008,386.76,0.31,266.9,29.4,138.05,31.68,24.66,36.54,0.90,-25.78,9.81,-52,38,-937,26.7,23.1,3.9,26.5,1.6,-29.0,5.73,2.62,-26.8,30.8
2012-08-27 02:18:00,0.0,1.9057,0.0008,386.92,0.29,267.6,27.2,138.05,31.68,24.66,36.54,0.93,-25.77,10.18,-51,38,-936,26.7,22.8,3.7,26.5,1.6,-29.0,5.73,2.58,-26.8,30.7
2012-08-27 02:19:00,0.0,1.9054,0.0011,386.88,0.26,273.4,31.7,138.05,31.68,24.66,36.54,0.91,-25.76,10.54,-51,38,-937,26.7,22.9,3.8,26.5,1.6,-29.0,5.73,2.58,-26.8,30.8
2012-08-27 02:20:00,0.0,1.9054,0.0008,387.00,0.30,263.9,32.4,138.05,31.69,24.66,36.54,0.90,-25.75,10.88,-52,38,-937,26.7,22.7,3.6,26.5,1.6,-29.0,5.73,2.62,-26.8,30.8